Wind_Speed
7 6 5 4 4 4 4 2 2 2 1 2 2 2 3 3 3 4 4 4 5 6 6 6 8 8 8 9 9 10 10 10 10 10 10 10 10 9 8 8 7 7 6
7 6 5 4 4 4 3 2 2 2 2 2 2 1 2 2 3 4 4 4 4 5 6 5 6 7 7 8 9 10 11 11 11 11 11 11 11 11 10 10 9 8 8
8 7 6 5 4 3 3 3 2 2 2 2 2 1 1 1 2 3 3 4 4 4 5 5 5 6 7 8 8 9 10 10 11 11 11 12 12 12 12 11 11 11 10
9 8 7 5 4 3 3 3 2 2 1 1 0 0 0 0 1 2 3 3 3 4 4 4 4 5 6 7 8 9 9 10 11 12 12 12 12 13 13 13 13 12 12
9 8 7 6 5 4 3 3 2 2 2 1 1 0 0 0 1 1 2 2 3 3 4 4 4 4 5 7 8 8 8 9 10 11 12 12 12 13 14 14 14 14 14
9 8 7 6 5 5 4 3 3 2 2 2 1 1 1 0 1 1 2 2 2 3 3 3 4 4 5 6 6 7 8 8 9 11 12 12 12 12 13 14 14 14 15
9 7 7 6 6 6 5 4 4 3 3 2 2 1 0 0 0 1 1 1 2 2 3 4 4 5 5 5 6 6 7 8 8 9 11 11 11 12 12 14 14 14 15
10 8 7 7 7 6 6 5 5 5 4 3 2 1 1 0 0 1 2 2 2 2 3 4 4 5 5 5 5 5 6 7 8 8 8 10 11 11 12 13 14 14 14
11 9 8 8 8 7 7 7 6 6 5 4 3 2 1 1 0 1 2 2 3 3 3 4 4 4 5 5 6 6 7 8 8 9 9 9 11 11 12 12 13 14 15
12 10 10 9 8 8 8 8 8 7 6 5 4 3 2 2 1 1 2 3 3 3 4 4 5 5 5 6 6 7 8 8 8 9 10 10 11 11 12 12 13 13 14
13 12 11 11 10 9 10 9 8 8 7 7 5 5 4 3 3 3 3 4 4 4 5 5 5 6 6 7 7 8 8 8 9 9 10 10 11 12 13 13 13 14 14
14 13 13 12 11 11 10 10 9 9 9 8 7 6 6 6 5 5 5 5 6 6 6 7 7 7 8 8 9 9 9 10 10 10 11 11 12 13 13 13 14 15 15
15 14 14 13 13 12 11 11 11 11 10 10 9 9 8 8 8 7 8 8 8 8 9 9 10 10 11 11 11 11 12 12 12 13 13 13 13 13 13 14 15 15 16
16 15 15 14 14 13 13 13 13 13 13 12 12 11 10 10 11 11 11 11 11 11 12 12 13 13 14 14 14 14 14 15 15 15 16 16 16 16 16 17 17 17 17
16 16 16 15 15 15 14 15 15 15 14 14 14 14 14 14 14 14 15 15 15 15 15 16 16 16 17 17 17 18 18 18 18 18 19 19 19 20 20 20 20 20 20
16 15 15 16 17 16 16 16 17 17 17 17 17 17 17 17 17 17 18 18 19 19 19 20 20 20 20 20 20 21 21 22 22 22 22 22 22 23 23 23 23 23 23
16 16 17 18 18 18 18 18 19 19 19 19 19 19 20 21 21 21 21 22 22 23 23 24 24 24 24 24 24 25 25 25 25 26 26 26 26 26 26 26 26 26 26
17 18 18 18 19 19 20 21 22 22 22 22 22 22 23 24 25 25 25 26 26 26 27 27 27 28 28 28 28 28 28 29 29 29 29 29 29 29 29 29 29 29 29
18 18 19 19 20 21 22 23 24 24 25 25 25 26 27 27 28 28 29 29 29 29 30 30 31 31 31 32 32 32 32 32 33 33 32 32 32 32 32 32 32 32 32
20 20 21 21 22 22 23 24 26 26 27 27 28 29 30 30 31 32 32 32 32 33 33 34 34 34 34 35 35 35 36 36 36 37 36 36 35 35 35 35 35 35 35
22 22 22 23 23 24 25 26 26 28 29 30 31 31 32 33 33 34 35 35 35 35 36 36 37 37 38 38 38 38 38 38 38 39 39 40 40 39 39 39 38 38 39
22 23 23 24 25 26 27 28 29 30 31 32 33 34 35 35 35 36 36 37 38 38 38 39 39 39 40 41 41 41 40 40 40 41 41 42 43 43 43 42 42 42 42
23 24 24 25 26 27 29 30 31 32 33 34 35 35 36 37 37 38 39 40 40 40 41 42 42 42 42 42 42 42 43 43 43 44 44 44 45 45 46 46 45 45 45
25 26 27 27 29 30 31 32 32 33 33 34 35 37 38 39 40 41 42 42 43 44 44 44 44 44 45 46 45 46 46 46 46 46 47 47 46 48 48 48 47 47 48
26 27 28 29 30 30 31 32 34 35 36 37 37 39 40 41 41 43 44 44 44 45 46 47 47 47 47 48 48 48 48 49 49 49 49 49 49 49 49 48 48 49 49
27 29 30 31 32 32 33 34 36 37 39 40 40 41 42 43 44 45 46 46 46 47 49 49 49 50 49 49 49 50 50 50 50 50 50 51 51 51 51 50 51 51 51
Wind_Direction
249 254 254 262 272 283 282 279 255 252 265 272 272 257 252 245 248 250 250 247 244 236 236 237 235 231 230 228 223 222 224 228 231 232 232 231 232 234 236 237 236 235 234
250 256 251 253 267 267 254 255 243 242 259 280 276 258 254 243 247 255 259 252 249 244 241 242 237 238 236 230 229 229 231 232 234 236 238 239 238 239 241 243 244 244 244
245 248 249 251 252 237 226 235 244 238 242 274 269 239 260 253 246 252 254 252 255 256 252 249 248 249 247 238 236 237 240 241 240 240 242 243 242 242 243 243 245 246 247
237 239 242 240 226 221 217 222 225 226 230 257 258 235 265 244 242 259 264 263 262 259 261 259 258 259 258 249 246 245 244 244 244 243 243 245 245 244 244 245 248 249 250
229 230 229 223 213 208 207 205 206 211 208 196 158 134 88 241 257 282 272 269 271 270 264 264 268 271 266 260 254 248 248 245 245 245 245 246 247 247 246 246 250 251 252
222 221 216 210 204 204 201 200 203 195 186 180 163 129 61 29 288 298 286 279 282 280 269 271 275 275 275 271 266 260 256 253 250 248 248 250 251 253 252 249 251 252 253
218 219 213 207 206 206 201 197 195 184 175 172 173 173 176 44 18 324 303 294 292 293 281 282 286 281 280 276 276 272 266 257 254 254 255 256 258 257 257 253 254 256 256
216 216 213 210 207 203 197 194 190 183 179 180 182 183 193 123 26 8 353 336 315 304 299 298 298 290 288 288 283 279 275 267 263 261 257 257 260 262 261 258 258 260 260
217 216 214 210 204 200 197 193 189 188 189 191 194 197 193 178 187 335 334 332 327 314 304 301 298 298 298 295 291 286 285 277 275 273 270 269 269 271 267 266 263 262 263
217 215 215 208 204 202 201 198 197 198 201 206 207 209 210 220 257 297 314 317 317 316 315 309 304 302 302 300 297 292 290 282 280 280 276 275 273 274 272 271 269 268 268
217 214 213 208 209 208 206 204 205 206 212 217 221 225 230 242 258 280 294 305 306 307 310 310 306 304 304 304 302 299 297 290 288 286 284 283 280 279 276 273 272 271 271
216 216 215 214 213 213 213 213 215 217 222 225 228 234 242 250 259 270 283 294 297 300 302 303 303 304 301 299 299 299 300 297 292 286 284 284 285 283 280 276 275 273 273
219 220 218 220 220 222 222 222 224 227 230 232 234 241 247 253 260 268 279 286 291 294 296 298 300 301 299 297 297 296 295 293 291 289 287 286 287 285 284 281 278 275 275
223 222 222 225 228 229 231 231 232 234 236 238 240 245 251 257 263 269 274 280 285 289 291 294 296 296 296 296 295 294 294 293 292 291 288 287 286 285 284 284 284 281 279
225 227 228 233 235 235 236 239 239 239 242 245 248 251 255 261 265 269 272 276 280 283 286 288 290 291 291 292 293 292 292 291 290 290 289 288 286 284 283 282 282 281 279
225 230 236 239 238 239 242 245 246 246 248 251 254 256 259 263 266 269 272 274 277 281 283 285 287 288 289 289 289 290 290 289 288 288 287 287 285 284 283 282 281 281 280
227 234 240 243 243 245 247 250 250 250 251 254 257 260 263 266 268 270 272 275 277 279 282 284 285 287 288 288 288 288 287 287 287 287 286 285 285 284 283 281 281 280 279
235 240 245 247 248 250 252 253 253 253 255 257 260 263 266 268 270 271 273 275 277 278 280 282 283 284 285 285 286 287 287 287 287 286 285 284 284 283 282 281 280 279 279
243 248 251 253 255 257 258 257 256 255 257 260 262 264 267 269 270 272 274 275 277 278 279 280 281 282 283 283 284 284 284 285 285 285 284 283 283 282 281 281 280 279 278
249 252 255 256 258 260 261 261 259 258 260 262 265 267 268 269 270 272 274 276 277 278 279 280 280 281 282 283 283 283 282 282 282 283 282 282 281 281 280 280 280 279 278
254 256 257 259 260 261 262 263 263 263 263 265 267 268 269 270 271 272 273 275 276 278 280 281 280 281 281 282 282 283 282 282 281 281 281 280 280 280 279 279 279 278 278
259 260 260 262 264 264 264 266 266 266 267 268 269 270 271 273 274 275 276 276 276 277 278 279 280 281 280 280 281 281 281 281 281 281 281 281 281 280 279 279 278 277 277
262 263 264 265 267 268 268 269 270 270 271 271 271 272 273 273 274 276 276 277 277 277 278 279 280 280 279 280 280 280 280 280 280 280 280 280 280 279 279 278 278 278 277
263 265 266 268 269 270 270 270 271 272 273 273 274 275 275 275 275 275 276 277 278 277 278 279 279 279 279 279 280 280 280 280 280 280 279 279 279 278 278 278 278 277 277
266 268 270 270 271 273 271 271 273 274 275 275 276 276 276 275 276 276 276 277 277 277 278 278 278 278 279 278 279 280 280 280 280 280 279 278 278 277 277 277 277 277 277
269 270 273 272 273 274 274 275 276 276 277 277 277 278 279 278 278 278 277 276 277 278 279 279 279 279 278 278 279 279 279 280 281 280 279 279 277 277 277 277 277 277 277
Height
5890 5890 5891 5891 5891 5891 5891 5891 5891 5891 5891 5891 5890 5890 5890 5890 5890 5890 5890 5890 5890 5891 5891 5891 5892 5892 5893 5894 5895 5895 5896 5898 5899 5899 5900 5901 5902 5902 5903 5903 5904 5904 5905
5888 5889 5889 5890 5890 5890 5890 5890 5890 5890 5890 5890 5890 5889 5889 5889 5889 5889 5889 5889 5889 5890 5890 5890 5891 5891 5892 5892 5893 5894 5895 5896 5897 5898 5898 5899 5900 5901 5901 5902 5903 5903 5904
5887 5887 5888 5888 5889 5889 5889 5889 5890 5890 5890 5889 5889 5889 5889 5889 5888 5888 5888 5888 5889 5889 5889 5889 5890 5890 5890 5891 5891 5892 5893 5894 5895 5895 5896 5897 5898 5899 5899 5900 5901 5902 5902
5885 5886 5887 5887 5888 5888 5888 5889 5889 5889 5889 5889 5889 5889 5889 5888 5888 5888 5888 5888 5888 5888 5888 5888 5889 5889 5889 5889 5890 5890 5891 5892 5892 5893 5894 5895 5895 5896 5897 5898 5899 5900 5900
5883 5884 5885 5886 5886 5887 5888 5888 5889 5889 5889 5889 5889 5889 5889 5888 5888 5888 5888 5887 5887 5887 5887 5888 5888 5888 5888 5888 5888 5889 5889 5889 5890 5891 5892 5892 5893 5894 5895 5895 5896 5897 5898
5881 5883 5883 5884 5885 5886 5887 5887 5888 5889 5889 5889 5889 5889 5889 5888 5888 5888 5888 5887 5887 5887 5887 5887 5887 5887 5887 5887 5887 5887 5887 5888 5888 5889 5889 5890 5891 5891 5892 5893 5894 5894 5895
5880 5881 5882 5883 5885 5885 5886 5887 5887 5888 5889 5889 5889 5889 5889 5888 5888 5888 5888 5887 5887 5887 5887 5886 5886 5886 5886 5886 5886 5886 5886 5886 5887 5887 5887 5888 5888 5889 5889 5890 5891 5891 5892
5878 5879 5881 5882 5883 5884 5885 5886 5887 5888 5888 5889 5889 5889 5889 5890 5889 5888 5888 5887 5887 5887 5886 5886 5886 5885 5885 5885 5885 5885 5885 5885 5885 5885 5885 5886 5886 5887 5887 5887 5888 5888 5889
5876 5878 5880 5881 5882 5883 5884 5885 5886 5887 5888 5889 5889 5889 5890 5889 5889 5889 5888 5887 5887 5887 5886 5886 5885 5885 5884 5884 5884 5884 5884 5884 5884 5883 5884 5884 5884 5884 5884 5885 5885 5885 5886
5874 5876 5878 5880 5881 5882 5883 5884 5885 5886 5887 5888 5888 5889 5889 5889 5889 5889 5888 5888 5887 5886 5886 5885 5885 5884 5884 5883 5883 5883 5883 5882 5882 5882 5882 5882 5882 5882 5882 5882 5882 5882 5882
5873 5875 5876 5878 5880 5881 5882 5883 5884 5886 5887 5887 5888 5888 5888 5888 5888 5888 5888 5887 5887 5886 5886 5885 5884 5884 5883 5883 5882 5882 5881 5881 5881 5880 5880 5880 5879 5879 5879 5879 5879 5879 5879
5871 5873 5874 5876 5878 5880 5881 5882 5883 5884 5885 5886 5887 5887 5887 5887 5887 5887 5887 5886 5886 5885 5885 5884 5883 5883 5882 5881 5881 5880 5880 5879 5879 5878 5878 5878 5877 5876 5876 5876 5876 5876 5876
5869 5871 5872 5874 5876 5878 5879 5880 5881 5883 5884 5884 5885 5885 5885 5886 5886 5886 5885 5885 5884 5884 5883 5883 5882 5881 5880 5880 5879 5878 5878 5877 5877 5876 5875 5875 5874 5874 5873 5873 5872 5872 5872
5867 5868 5870 5872 5874 5875 5877 5878 5879 5880 5881 5882 5882 5883 5883 5883 5884 5883 5883 5883 5882 5882 5881 5881 5880 5879 5878 5877 5877 5876 5875 5874 5874 5873 5872 5872 5871 5870 5870 5869 5869 5868 5868
5864 5866 5868 5869 5871 5872 5874 5875 5876 5877 5878 5879 5880 5880 5880 5880 5880 5880 5880 5880 5880 5879 5878 5877 5877 5876 5875 5874 5873 5873 5872 5871 5870 5869 5868 5867 5867 5866 5866 5865 5864 5864 5863
5861 5863 5865 5866 5868 5869 5870 5872 5873 5874 5875 5875 5876 5876 5877 5877 5877 5876 5876 5876 5875 5875 5874 5874 5873 5872 5871 5870 5869 5868 5867 5867 5866 5865 5864 5863 5862 5861 5860 5860 5859 5859 5858
5858 5860 5861 5862 5864 5865 5866 5867 5868 5869 5870 5871 5871 5872 5872 5872 5872 5872 5871 5871 5870 5870 5869 5868 5868 5867 5866 5865 5864 5863 5862 5861 5860 5859 5858 5857 5856 5856 5855 5854 5853 5853 5852
5854 5856 5857 5858 5860 5861 5862 5862 5863 5864 5865 5866 5866 5867 5867 5867 5867 5866 5866 5865 5864 5864 5863 5862 5861 5861 5860 5859 5858 5856 5855 5854 5853 5852 5851 5850 5850 5849 5848 5847 5846 5846 5845
5851 5852 5853 5854 5855 5856 5857 5857 5858 5858 5859 5860 5860 5860 5860 5860 5860 5860 5859 5858 5858 5857 5856 5855 5854 5853 5852 5851 5850 5849 5848 5846 5845 5844 5843 5842 5841 5840 5840 5839 5838 5837 5837
5846 5847 5848 5849 5850 5851 5851 5851 5852 5852 5853 5853 5853 5853 5853 5853 5852 5852 5851 5851 5850 5849 5848 5847 5845 5844 5843 5842 5841 5840 5839 5838 5836 5835 5834 5833 5832 5831 5830 5829 5829 5828 5827
5842 5843 5843 5844 5845 5845 5845 5845 5845 5846 5846 5846 5846 5846 5845 5845 5844 5844 5843 5842 5841 5840 5839 5838 5836 5835 5834 5832 5831 5830 5829 5827 5826 5824 5823 5822 5821 5820 5819 5819 5818 5817 5817
5836 5837 5838 5838 5839 5839 5839 5839 5839 5839 5839 5838 5838 5838 5837 5836 5835 5834 5833 5832 5831 5830 5829 5828 5827 5825 5824 5822 5821 5819 5818 5817 5816 5814 5813 5811 5809 5809 5808 5807 5807 5806 5805
5831 5831 5832 5832 5832 5832 5832 5832 5831 5831 5831 5830 5829 5828 5827 5826 5826 5824 5823 5822 5821 5820 5819 5817 5816 5814 5812 5811 5809 5808 5807 5806 5805 5802 5801 5800 5798 5796 5795 5794 5794 5793 5792
5825 5825 5825 5825 5824 5824 5823 5823 5822 5822 5821 5821 5820 5818 5817 5816 5815 5813 5812 5811 5810 5809 5807 5805 5804 5802 5800 5798 5797 5796 5794 5793 5792 5790 5788 5787 5786 5783 5782 5781 5781 5780 5778
5818 5818 5818 5817 5816 5815 5815 5814 5814 5812 5812 5811 5809 5808 5806 5805 5803 5801 5800 5799 5797 5796 5794 5792 5791 5789 5787 5785 5784 5782 5780 5779 5778 5777 5774 5773 5772 5770 5768 5767 5766 5765 5764
5811 5811 5810 5809 5808 5807 5806 5805 5804 5803 5801 5800 5798 5796 5795 5793 5791 5789 5787 5786 5784 5783 5781 5779 5777 5775 5773 5771 5770 5768 5766 5764 5763 5762 5760 5758 5756 5754 5754 5753 5751 5750 5749